Edna St. Vincent Millay

(22 February 1892 – 19 October 1950 / Rockland / Maine / United States)

Stats

» Click to list general statistics » OR, select a date :

General Statistics

Visitors of the poet

Number of visitors of the poet’s mainpage in PoemHunter.Com

Attention : Numbers in this table does not indicate the total hits of poems of the poet, but indicates the hits of the poet’s main page.

Date Hits
07/03/2015 Friday 714
85%
07/02/2015 Thursday 733
87%
07/01/2015 Wednesday 764
91%
06/30/2015 Tuesday 632
75%
06/29/2015 Monday 570
68%
06/28/2015 Sunday 573
68%
06/27/2015 Saturday 600
71%
06/26/2015 Friday 490
58%
06/25/2015 Thursday 538
64%
06/24/2015 Wednesday 523
62%
06/23/2015 Tuesday 690
82%
06/22/2015 Monday 739
88%
06/21/2015 Sunday 641
76%
06/20/2015 Saturday 514
61%
06/19/2015 Friday 504
60%
06/18/2015 Thursday 732
87%
06/17/2015 Wednesday 757
90%
06/16/2015 Tuesday 836
100%
06/15/2015 Monday 719
86%
06/14/2015 Sunday 627
75%

Reader rating & num.of MyPoemList’s

Click the captions of columns to change the order.

# Poem Title Submit Date Reader Rating Num.of MyPoemList’s
Rating Num.R.
1 Weeds 01/13/2003 8.0 1 8
2 I Know 100 Ways To Die 07/07/2003 7.8 4 28
3 Grown-Up 01/01/2004 6.2 25 31
4 Journey 01/13/2003 6.2 26 17
5 Renascence 01/04/2003 7.0 31 61
6 We Talk Of Taxes... 01/01/2004 6.2 28 4
7 I, Being Born A Woman And Distressed 01/01/2004 6.7 33 54
8 Elegy Before Death 01/13/2003 6.1 31 14
9 Wraith 01/13/2003 5.6 29 12
10 Two Sonnets In Memory 01/13/2003 5.9 31 5
11 Memorial To D.C. 01/13/2003 5.8 31 2
12 The Penitent 01/13/2003 5.6 30 10
13 Humoresque 01/01/2004 5.6 30 16
14 Intention To Escape From Him 01/13/2003 6.3 34 21
15 Wild Swans 01/13/2003 5.9 32 14
16 Eel-Grass 01/13/2003 6.0 33 10
17 If Still Your Orchards Bear 01/13/2003 5.8 32 7
18 Fontaine, Je Ne Boirai Pas De Ton Eau! 01/13/2003 5.5 31 8
19 Ode To Silence 01/13/2003 5.9 33 15
20 Sonnets 05: Once More Into My Arid Days Like Dew 01/13/2003 5.7 32 8
21 Indifference 01/13/2003 5.8 33 11
22 The Blue Flag In The Bog 01/01/2004 5.9 34 4
23 When I Too Long Have Looked Upon Your Face 01/01/2004 6.2 36 30
24 Menses 01/13/2003 5.5 32 6
25 Justice Denied In Massachusetts 01/13/2003 5.9 34 8
26 Underground System 01/13/2003 5.8 34 3
27 Oh, Oh, You Will Be Sorry 01/13/2003 6.4 38 33
28 Sonnets 04: Only Until This Cigarette Is Ended 01/13/2003 5.8 34 11
29 Interim 01/13/2003 6.1 36 14
30 Midnight Oil 01/13/2003 5.9 35 11
31 Portrait By A Neighbour 01/13/2003 5.9 35 8
32 Oh, My Belovèd, Have You Thought Of This 01/01/2004 6.0 36 12
33 Pity Me Not Because The Light Of Day 01/13/2003 6.3 38 32
34 Prayer To Persephone 01/13/2003 5.5 33 18
35 Mist In The Valley 01/13/2003 5.4 33 14
36 Lament 01/13/2003 6.4 39 25
37 Lines For A Grave-Stone 01/01/2004 6.1 37 7
38 Modern Declaration 01/13/2003 5.6 34 9
39 When We Are Old And These Rejoicing Veins 01/13/2003 5.7 35 14
40 Night Is My Sister, And How Deep In Love 01/13/2003 5.7 35 26
41 I Know I Am But Summer To Your Heart 01/13/2003 6.5 40 47
42 Kin To Sorrow 01/13/2003 5.5 34 20
43 If I Should Learn, In Some Quite Casual Way 01/01/2004 6.4 40 36
44 Epitaph 01/13/2003 6.1 38 17
45 The Little Ghost 01/13/2003 6.1 38 16
46 Invocation To The Muses 01/13/2003 5.6 36 4
47 Three Songs Of Shattering 01/13/2003 5.9 38 7
48 Not In A Silver Casket Cool With Pearls 01/13/2003 5.9 38 20
49 My Most Distinguished Guest And Learned Friend 01/13/2003 5.4 35 9
50 The Poet And His Book 01/13/2003 6.2 40 10
51 No Rose That In A Garden Ever Grew 01/01/2004 5.5 36 12
52 Inland 01/13/2003 5.5 36 7
53 Not Even My Pride Shall Suffer Much 01/13/2003 5.7 37 9
54 Only Until This Cigarette Is Ended 01/01/2004 5.5 36 44
55 The Betrothal 01/01/2004 5.6 37 13
56 Recuerdo 01/01/2004 6.5 43 19
57 When The Year Grows Old 01/04/2003 5.7 38 16
58 Make Bright The Arrows 01/13/2003 5.7 38 4
59 Exiled 01/13/2003 6.5 44 21
60 Travel 01/13/2003 6.0 41 16
61 Pastoral 01/13/2003 5.1 35 5
62 I Shall Go Back 01/01/2004 5.5 39 25
63 Witch-Wife 01/13/2003 5.4 39 23
64 Scrub 01/13/2003 5.7 42 4
65 Spring 01/13/2003 6.1 45 21
66 To A Poet That Died Young 01/13/2003 5.8 43 7
67 Sonnets 06: No Rose That In A Garden Ever Grew 01/13/2003 5.6 42 7
68 Sonnet Iii: Mindful Of You The Sodden Earth 01/01/2004 5.6 42 5
69 Sonnets 07: When I Too Long Have Looked Upon Your Face 01/13/2003 5.9 44 22
70 Sonnet (Women Have Loved Before As I Love Now) 01/13/2003 5.9 44 18
71 The Wood Road 01/13/2003 5.8 44 5
72 Mariposa 01/13/2003 6.6 50 12
73 Sonnets 10: Oh, My Beloved, Have You Thought Of This 01/13/2003 5.8 44 6
74 The Singing-Woman From The Wood's Edge 01/13/2003 5.9 45 7
75 To Those Without Pity 01/13/2003 5.1 39 10
76 Sonnet Iv: Not In This Chamber 01/01/2004 5.5 42 3
77 I Do But Ask That You Be Always Fair 01/01/2004 5.5 42 29
78 Sonnet I: Thou Art Not Lovelier Than Lilacs 01/01/2004 5.6 43 10
79 Sonnet 01: Thou Art Not Lovelier Than Lilacs,&Mdash;No 01/13/2003 5.7 44 15
80 Sonnet 03: Mindful Of You The Sodden Earth In Spring 01/13/2003 5.4 42 5
81 Sonnets 11: As To Some Lovely Temple, Tenantless 01/13/2003 5.7 44 3
82 Song Of A Second April 01/13/2003 5.9 46 8
83 Sonnet 04: Not In This Chamber Only At My Birth 01/13/2003 5.5 43 4
84 Whereas At Morning In A Jeweled Crown 01/13/2003 5.4 42 6
85 Sonnet Ii: Time Does Not Bring Relief 01/01/2004 6.0 47 25
86 Second Fig 01/13/2003 6.0 47 27
87 The Philosopher 01/13/2003 5.6 44 22
88 Lines Written In Recapitulation 01/13/2003 6.2 49 4
89 I Know The Face Of Falsehood And Her Tongue 01/13/2003 5.6 44 7
90 Passer Mortuus Est 01/13/2003 5.8 46 10
91 Elegy 01/13/2003 5.3 42 8
92 Rosemary 01/13/2003 5.5 44 6
93 The Plaid Dress 01/13/2003 5.8 46 10
94 Sonnets From An Ungrafted Tree 01/13/2003 5.7 46 4
95 Euclid Alone 01/01/2004 5.7 46 16
96 Sonnet 06: Bluebeard 01/13/2003 6.1 49 7
97 Sweet Love, Sweet Thorn, When Lightly To My Heart 01/13/2003 5.6 45 16
98 Sonnet 05: If I Should Learn, In Some Quite Casual Way 01/13/2003 5.9 48 18
99 The Unexplorer 01/13/2003 6.0 49 8
100 Souvenir 01/13/2003 5.6 46 11
101 Feast 01/13/2003 6.0 50 14
102 Sonnet Vi: This Door You Might Not Open 01/01/2004 5.9 49 12
103 The Return From Town 01/13/2003 5.5 47 6
104 Tavern 01/13/2003 5.6 48 7
105 Sonnets 01: We Talk Of Taxes, And I Call You Friend 01/13/2003 5.4 48 9
106 Sonnet V: If I Should Learn 01/01/2004 5.3 48 4
107 Sonnets 08: And You As Well Must Die, Beloved Dust 01/13/2003 5.5 50 6
108 Sonnets 09: Let You Not Say Of Me When I Am Old 01/13/2003 5.6 51 9
109 The Fledgling 01/13/2003 5.4 49 2
110 The True Encounter 01/13/2003 5.9 54 6
111 Sorrow 01/13/2003 5.7 53 26
112 Sonnets (1923) 01/01/2004 5.3 49 6
113 The Little Hill 01/13/2003 5.8 54 7
114 Here Is A Wound That Never Will Heal, I Know 01/13/2003 6.0 56 57
115 Low-Tide 01/13/2003 4.8 45 14
116 Think Not, Not For A Moment Let Your Mind 01/13/2003 5.7 54 14
117 Sonnets 03: Not With Libations, But With Shouts And Laughter 01/13/2003 5.8 56 6
118 To The Not Impossible Him 01/13/2003 5.3 52 14
119 First Fig 01/13/2003 7.5 74 92
120 The Death Of Autumn 01/13/2003 5.9 59 10
121 Sonnet 02: Time Does Not Bring Relief; You All Have Lied 01/13/2003 6.5 66 65
122 The Leaf And The Tree 01/13/2003 5.8 59 15
123 The Ballad Of The Harp-Weaver 01/13/2003 5.9 61 28
124 To Kathleen 01/01/2004 5.5 57 4
125 The Bean-Stalk 01/13/2003 5.6 58 5
126 Sonnets 02: Into The Golden Vessel Of Great Song 01/13/2003 5.3 55 3
127 To A Young Poet 01/01/2004 5.9 61 9
128 The Shroud 01/13/2003 5.5 57 4
129 The Suicide 01/13/2003 5.5 58 18
130 The Dream 01/13/2003 5.8 62 26
131 Love Is Not All 01/13/2003 7.5 80 175
132 Sonnets 12: Cherish You Then The Hope I Shall Forget 01/13/2003 5.5 61 3
133 God's World 01/04/2003 6.1 69 38
134 The Fawn 01/13/2003 5.8 66 5
135 I Dreamed I Moved Among The Elysian Fields 01/13/2003 5.9 68 25
136 The Curse 01/13/2003 5.9 68 12
137 The Blue-Flag In The Bog 01/13/2003 5.3 62 2
138 Doubt No More That Oberon 01/13/2003 5.6 66 12
139 The Goose-Girl 01/13/2003 5.8 69 9
140 Dirge 01/13/2003 5.6 68 11
141 And You As Well Must Die, Belovèd Dust 01/01/2004 6.0 77 53
142 The Concert 01/13/2003 5.5 71 7
143 The Snow Storm 01/13/2003 5.8 75 7
144 The Spring And The Fall 01/13/2003 8.0 111 66
145 Chorus 01/13/2003 5.8 82 22
146 Thursday 01/01/2004 5.3 76 11
147 Ashes Of Life 01/13/2003 6.0 87 67
148 Bluebeard 01/01/2004 5.5 80 43
149 Ebb 01/13/2003 5.5 81 25
150 Being Young And Green 01/13/2003 5.5 84 33
151 Dirge Without Music 01/13/2003 6.5 101 66
152 What Lips My Lips Have Kissed, And Where, And Why (Sonnet Xliii) 01/13/2003 7.9 123 374
153 Departure 01/13/2003 5.5 88 40
154 Counting-Out Rhyme 01/01/2004 6.1 98 22
155 Alms 01/13/2003 5.7 92 26
156 Daphne 01/13/2003 5.7 93 33
157 A Visit To The Asylum 01/13/2003 6.0 99 59
158 Blight 01/13/2003 5.9 96 22
159 Burial 01/13/2003 5.3 89 30
160 An Ancient Gesture 01/13/2003 6.0 107 49
161 Afternoon On A Hill 01/04/2003 6.6 118 75
162 And Do You Think That Love Itself 01/13/2003 6.1 114 63
163 Apostrophe To Man 01/13/2003 5.8 118 32
164 [four Sonnets (1922)] 01/01/2004 5.2 106 30
165 Assault 01/13/2003 5.6 123 20
166 Autumn Daybreak 01/13/2003 5.6 130 43
167 City Trees 01/13/2003 5.8 134 58
168 Conscientious Objector 01/13/2003 5.5 180 73
169 Childhood Is The Kingdom Where Nobody Dies 11/28/2014 -- 0 0
170 The Courage That My Mother Had 01/03/2015 -- 0 1
171 She Is Overheard Singing 06/18/2015 -- 0 0
[Hata Bildir]